Погода в Русской Цильне

Россия / Ульяновская область     54°42′15″N   47°57′19″E
темп.,
°C
ветер,
м/с
пор.,
м/с
влажн.,
%
обл.,
%
осадки,
мм/ч
давл.,
гПа
погр.,
м
7 мая, пт
пт701:00+11ююз41269100 0.0 1015268
04:00+10ю51270100 0.0 1015239
07:00+11ю51268100 0.0 1015326
10:00+15ю71154100 0.0 10151130
13:00+18ююз8114497 0.0 10141910
16:00+18ююз71045100 0.0 10132407
19:00+13з71280100 0.4 1014612
22:00+10сз4687100 0.4 1016347
8 мая, сб
сб801:00+9ссз3485100 0.4 1017361
04:00+8с2487100 0.4 1018274
07:00+8св348510 0.0 1018283
10:00+12юв3375100 0.0 1018789
13:00+14ююв466896 0.0 10171132
16:00+16юв466412 0.1 1015789
19:00+15юв5116889 0.0 1013398
22:00+14ююв61465100 0.0 1013329
9 мая, вс
вс901:00+14ю51363100 0.0 1012444
04:00+11ююв487689 0.0 1012150
07:00+12ююв41078100 0.1 1012239
10:00+15ююз41065100 0.1 1013767
13:00+17юз4660100 0.0 10131073
16:00+12сз5790100 2.1 1015368
19:00+9ссз71091100 2.7 1017438
22:00+8с71193100 8.3 1018519
10 мая, пн
пн1001:00+8ссз5993100 2.9 1020543
04:00+7с51091100 3.7 1022585
07:00+7с51090100 0.4 1024607
10:00+8с5885100 1.1 1026806
13:00+9с577199 0.8 1027976
16:00+13с57589 0.8 10281442
19:00+12ссв47665 0.0 1029426
22:00+8св34780 0.0 103050
11 мая, вт
вт1101:00+6св23830 0.0 103144
04:00+5всв228416 0.0 103213
07:00+8всв247631 0.0 1033143
10:00+12всв45575 0.0 1033706
13:00+15всв454661 0.0 10331095
16:00+16всв454593 0.0 10311031
19:00+14в2560100 0.0 1031186
22:00+11в226292 0.0 103119